sat.trackr.live / text

‹ back to catalog

SENTINEL-2A

NORAD 40697 · 2015-028A

PAYLOAD ACTIVE UNKNOWN

§ Identity

Operator
Country
ESA
Launch date
2015-06-23
Launch site
FRGUI
Launch vehicle
Mass (kg)
RCS (m²)
3.45

Purposes: earth_obs

External: N2YO · Heavens-Above · Gunter

§ Orbital elements

Epoch: 2026-09-20T04:18:45.719712Z

Period
100.64 min
Inclination
98.5664°
Eccentricity
0.0001133
Mean motion
14.30816920 rev/d
Perigee alt
788.2 km
Apogee alt
789.8 km
Semi-major
7,167.1 km
B*
6.1692e-5
RAAN
336.6484°
Arg perigee
82.2970°
Mean anomaly
277.8342°
Rev number
58,731

§ Raw data

SENTINEL-2A1 40697U 15028A   26263.17969583  .00000118  00000+0  61692-4 0  99962 40697  98.5664 336.6484 0001133  82.2970 277.8342 14.30816920587317

JSON: /api/v1/satellites/40697 · /tle

For live sub-satellite position, see the globe view (requires WebGL).

§ Visibility from observer

Set your observer location to see the next 7 days of passes ≥ 10°. The values pass through the URL so the page stays shareable.

No JS? Fill the form by hand. The geolocation button needs JavaScript.